Location: Mitty Observatory
(35.9148°N, 88.8847°W)
Time: 02:31:58
(UTC-06:00)

LightSail 2 - Pass Details

Date: 18 November 2019
Orbit: 696 x 730 km, 24.0° (Epoch: 07 December)

Event Time Altitude Azimuth Distance (km) Brightness Sun altitude
Exits shadow 04:24:51 16° 189° (S) 1,819 7.2 -26.2°
Drops below altitude 10° 04:27:44 10° 155° (SSE) 2,205 8.0 -25.6°
Sets 04:31:03 0° 134° (SE) 3,129 9.2 -24.9°
